Mobile, AL

1:32 PM CDT on August 25, 2016 (GMT -0500)
Mobile Regional

Weather History for KMOB - November, 2014

Change the Weather History Date:

Wednesday, November 19, 2014

  Actual Average Record
Temperature  
Mean Temperature 40 °F 59 °F  
Max Temperature 56 °F 70 °F 82 °F (1985)
Min Temperature 23 °F 48 °F 23 °F (2014)
Degree Days  
Heating Degree Days 25 7  
Month to date heating degree days 247 104  
Since 1 July heating degree days 287 159  
Cooling Degree Days 0 1  
Month to date cooling degree days 5 31  
Year to date cooling degree days 2301 2493  
Moisture  
Dew Point 25 °F    
Average Humidity 62    
Maximum Humidity 100    
Minimum Humidity 24    
Precipitation  
Precipitation 0.00 in 0.18 in 1.99 in (1948)
Month to date precipitation 1.31 3.28  
Year to date precipitation 67.27 59.24  
Snow  
Snow 0.00 in 0.00 in 0.00 in (2002)
Month to date snowfall 0.0 0.0  
Since 1 July snowfall 0.0 0.0  
Snow Depth 0.00 in    
Sea Level Pressure  
Sea Level Pressure 30.39 in    
Wind  
Wind Speed 3 mph (SSE)    
Max Wind Speed 12 mph    
Max Gust Speed 14 mph    
Visibility 10 miles    
Events      
T = Trace of Precipitation, MM = Missing Value Source: NWS Daily Summary

Daily Weather History Graph

Daily Weather History Graph

Search for Another Location

Airport or City:

Trip Planner

Search our weather history database for the weather conditions in past years. The results will help you decide how hot, cold, wet, or windy it might be!

Date:

Astronomy

Nov. 19, 2014 Rise Set
Actual Time 6:22 AM CST 4:53 PM CST
Civil Twilight 5:56 AM CST 5:19 PM CST
Nautical Twilight 5:27 AM CST 5:48 PM CST
Astronomical Twilight 4:58 AM CST 6:17 PM CST
Moon 3:30 AM CST (11/19) 3:10 PM CST (11/19)
Length of Visible Light 11h 22m
Length of Day
10h 31m
Waning Crescent, 8% of the Moon is Illuminated
Nov 19
Waning Crescent
Nov 22
New
Nov 29
First Quarter
Dec 6
Full
Dec 14
Last Quarter

Hourly Weather History & Observations

Time (CST) Temp. Windchill Dew Point Humidity Pressure Visibility Wind Dir Wind Speed Gust Speed Precip Events Conditions
12:56 AM 25.0 °F - 23.0 °F 92% 30.44 in 10.0 mi Calm Calm - N/A   Clear
1:56 AM 25.0 °F - 23.0 °F 92% 30.44 in 10.0 mi Calm Calm - N/A   Clear
2:56 AM 23.0 °F - 21.9 °F 96% 30.44 in 10.0 mi Calm Calm - N/A   Clear
3:56 AM 24.1 °F - 21.9 °F 91% 30.45 in 10.0 mi Calm Calm - N/A   Clear
4:56 AM 24.1 °F - 21.0 °F 88% 30.44 in 10.0 mi Calm Calm - N/A   Clear
5:56 AM 25.0 °F - 21.0 °F 85% 30.45 in 10.0 mi Calm Calm - N/A   Clear
6:56 AM 28.0 °F - 21.0 °F 75% 30.46 in 10.0 mi Calm Calm - N/A   Clear
7:56 AM 36.0 °F 33.3 °F 28.9 °F 76% 30.47 in 10.0 mi ESE 3.5 mph - N/A   Clear
8:56 AM 41.0 °F 38.0 °F 26.1 °F 55% 30.47 in 10.0 mi ESE 4.6 mph - N/A   Clear
9:56 AM 46.0 °F - 21.9 °F 39% 30.48 in 10.0 mi Calm Calm - N/A   Clear
10:56 AM 48.0 °F - 19.9 °F 33% 30.46 in 10.0 mi Variable 3.5 mph - N/A   Clear
11:56 AM 51.1 °F - 19.9 °F 29% 30.41 in 10.0 mi Variable 4.6 mph - N/A   Clear
12:56 PM 53.1 °F - 19.0 °F 26% 30.36 in 10.0 mi South 4.6 mph - N/A   Clear
1:56 PM 55.0 °F - 19.9 °F 25% 30.34 in 10.0 mi South 8.1 mph - N/A   Clear
2:56 PM 55.0 °F - 21.0 °F 27% 30.32 in 10.0 mi SSE 4.6 mph - N/A   Clear
3:56 PM 53.1 °F - 23.0 °F 31% 30.32 in 10.0 mi SSE 9.2 mph - N/A   Clear
4:56 PM 46.9 °F - 26.1 °F 44% 30.33 in 10.0 mi SSW 8.1 mph - N/A   Clear
5:56 PM 41.0 °F 37.1 °F 27.0 °F 57% 30.34 in 10.0 mi SSW 5.8 mph - N/A   Clear
6:56 PM 39.0 °F - 28.0 °F 65% 30.36 in 10.0 mi Calm Calm - N/A   Clear
7:56 PM 37.0 °F - 30.0 °F 76% 30.35 in 8.0 mi Calm Calm - N/A   Clear
8:56 PM 37.0 °F - 30.9 °F 79% 30.35 in 10.0 mi Calm Calm - N/A   Clear
9:56 PM 37.9 °F - 32.0 °F 79% 30.35 in 10.0 mi Calm Calm - N/A   Clear
10:56 PM 34.0 °F - 33.1 °F 96% 30.35 in 10.0 mi Calm Calm - N/A   Clear
11:56 PM 37.0 °F 34.5 °F 33.1 °F 86% 30.32 in 10.0 mi SE 3.5 mph - N/A   Clear